This demonstration page uses our WeatherBlox Daily Observations layout. Learn more.

Left ArrowRight Arrow

Hourly Observations for November 23, 2020

Temp ( °F °C ) Dew Point ( °F °C ) Humidity (%) Winds ( mph kmh ) Pressure ( in mb ) Visibility ( mi km ) Precip ( " mm )
12:56 am 00:56 Clear 23 -5 15 -9.4 72 72 S 3 6 30.30 1026 10 16 0.00 0.00
1:56 am 01:56 Partly Cloudy 26 -3.3 17 -8.3 69 69 S 5 7 30.28 1025 10 16 0.00 0.00
2:56 am 02:56 Mostly Cloudy 28 -2.2 19 -7.2 69 69 SSE 5 7 30.25 1025 10 16 0.00 0.00
3:56 am 03:56 Cloudy 36 2.2 22 -5.6 57 57 SSE 12 19 30.21 1023 10 16 0.00 0.00
4:56 am 04:56 Cloudy 37 2.8 22 -5.6 54 54 SSE 12 19 30.19 1022 10 16 0.00 0.00
5:56 am 05:56 Cloudy 37 2.8 23 -5 57 57 SSE 13 20 30.17 1022 10 16 0.00 0.00
6:56 am 06:56 Cloudy 38 3.3 25 -3.9 60 60 SSE 16 26 30.17 1022 10 16 0.00 0.00
7:56 am 07:56 Cloudy 37 2.8 28 -2.2 70 70 SSE 20 31 30.16 1021 10 16 0.00 0.00
8:56 am 08:56 Cloudy 36 2.2 31 -0.6 82 82 SSE 22 35 30.14 1021 10 16 0.00 0.00
9:56 am 09:56 Cloudy 38 3.3 32 0 79 79 SSE 22 35 30.11 1020 10 16 0.00 0.00
10:56 am 10:56 Cloudy 39 3.9 33 0.6 79 79 SSE 23 37 30.09 1019 10 16 0.00 0.00
11:19 am 11:19 Cloudy 39 4 34 1 81 81 SSE 22 35 30.09 1019 10 16 0.00 0.00
11:56 am 11:56 Cloudy 40 4.4 34 1.1 79 79 SSE 25 41 30.06 1018 10 16 0.00 0.00
12:56 pm 12:56 Cloudy 41 5 35 1.7 79 79 SSE 22 35 30.01 1016 10 16 0.00 0.00
1:22 pm 13:22 Cloudy 39 4 36 2 87 87 SSE 21 33 30.01 1016 10 16 0.00 0.00
1:56 pm 13:56 Cloudy 40 4.4 37 2.8 89 89 SSE 21 33 29.98 1015 10 16 0.00 0.00
2:24 pm 14:24 Cloudy 39 4 37 3 93 93 SSE 21 33 29.98 1015 10 16 0.00 0.00
2:56 pm 14:56 Cloudy 40 4.4 38 3.3 93 93 SSE 21 33 29.93 1014 10 16 0.00 0.00
3:40 pm 15:40 Cloudy 39 4 37 3 93 93 SSE 17 28 29.95 1014 9 14 0.00 0.00
3:56 pm 15:56 Cloudy 39 3.9 38 3.3 96 96 SSE 22 35 29.91 1013 9 14 0.00 0.00
4:56 pm 16:56 Cloudy 39 3.9 38 3.3 96 96 SE 17 28 29.91 1013 10 16 0.00 0.00
5:56 pm 17:56 Cloudy 39 3.9 38 3.3 96 96 SE 20 31 29.90 1013 10 16 0.00 0.00
6:35 pm 18:35 Cloudy 39 4 37 3 93 93 SE 16 26 29.92 1013 7 11 0.00 0.00
6:56 pm 18:56 Cloudy 39 3.9 38 3.3 96 96 SSE 17 28 29.89 1012 7 11 0.00 0.00
7:56 pm 19:56 Cloudy 40 4.4 39 3.9 97 97 SSE 20 31 29.88 1012 7 11 0.00 0.00
8:56 pm 20:56 Cloudy 40 4.4 39 3.9 97 97 SE 17 28 29.87 1012 8 13 0.00 0.00
9:56 pm 21:56 Cloudy 41 5 40 4.4 96 96 SSE 15 24 29.86 1011 8 13 0.00 0.00
10:56 pm 22:56 Cloudy 41 5 40 4.4 96 96 SSE 15 24 29.85 1011 7 11 0.00 0.00
11:56 pm 23:56 Cloudy with Mist and Fog 41 5 41 5 100 100 SE 14 22 29.81 1010 3 5 0.00 0.00

Powered by AerisWeather